User: anonymous   Login
Location: Unspecified
(0.0000°N, 0.0000°E)
Time: 00:09:01
(UTC+00:00)
Language:

STARLINK-31442 - Orbit

View from above orbital plane
View from above orbital plane
View from above satellite
View from above satellite

Ground track
Ground track

The orbit is defined by the following mean orbital elements,

1 59859U          26145.53694021 +.00000000 +00000-0 -60735-5 0 00004
2 59859  42.9991 207.9019 0001190 274.7760  85.2956 15.27576033    08
Epoch (UTC): 25 May 2026 12:53:11
Eccentricity: 0.0001190
inclination: 42.9991°
perigee height: 482 km
apogee height: 484 km
right ascension of ascending node: 207.9019°
argument of perigee: 274.7760°
revolutions per day: 15.27576033
mean anomaly at epoch: 85.2956°

The dashed part of the orbit path shows where the satellite is in the earth's shadow,  

DLR